Location: Newark
(35.6799°N, 139.7636°E)
Time: 15:51:28
(UTC+00:00)

Transit 2A - Pass Details

Date: 14 December 2019
Orbit: 601 x 958 km, 66.7° (Epoch: 25 January)

Event Time Altitude Azimuth Distance (km) Brightness Sun altitude
Rises 21:16:51 0° 239° (WSW) 3,093 8.8 -5.5°
Reaches altitude 10° 21:19:45 10° 254° (WSW) 2,116 7.9 -5.0°
Maximum altitude 21:23:24 22° 305° (NW) 1,426 6.8 -4.3°
Drops below altitude 10° 21:26:54 10° 356° (N) 2,002 7.9 -3.7°
Sets 21:29:33 0° 13° (NNE) 2,881 8.8 -3.2°
